Regional Weather Roundup
Issued by NWS

Home | Current Version | Previous Version | Text Only | Print | Product List | Glossary Off
Versions: 1 2 3 4 5 6 7 8 9 10 11 12 13 14 15 16 17 18 19 20 21 22 23 24 25 26 27 28 29 30 31 32 33 34 35 36 37 38 39 40 41 42 43 44 45 46 47 48 49 50

000
ASUS44 KMEG 021510
RWRTN
TENNESSEE HOURLY STATE WEATHER ROUNDUP
NATIONAL WEATHER SERVICE MEMPHIS TN
1000 AM CDT SUN AUG 02 2015

TNZ002-004-019-021-049-052-054-088>092-021600-
WEST TENNESSEE

CITY           SKY/WX    TMP DP  RH WIND       PRES   REMARKS
MEMPHIS INTL   MOSUNNY   88  68  51 S3        29.99S HX  91
NWS MEMPHIS      N/A     88 N/A N/A MISG        N/A
JACKSON        MOSUNNY   85  67  54 CALM      30.00S
DYERSBURG        N/A    N/A N/A N/A MISG        N/A
PARIS          SUNNY     81  63  54 SE5       30.02R
LEXINGTON      SUNNY     81  68  65 NE5       30.00S
$$

TNZ008-025-027-028-033-062-065-066-021600-
NORTH MIDDLE TENNESSEE

CITY           SKY/WX    TMP DP  RH WIND       PRES   REMARKS
NASHVILLE      MOSUNNY   81  61  50 SE7       30.02S
CLARKSVILLE    SUNNY     80  64  58 VRB3      30.01S
SMYRNA         SUNNY     83  64  52 VRB5      30.02F
CROSSVILLE     SUNNY     78  58  49 SE3       30.07S
$$

TNZ061-075-076-078-094-096-097-021600-
SOUTH MIDDLE TENNESSEE

CITY           SKY/WX    TMP DP  RH WIND       PRES   REMARKS
FAYETTEVILLE   SUNNY     81  64  57 SE6       30.01S
TULLAHOMA      SUNNY     81  61  50 VRB5      30.03S
WINCHESTER     SUNNY     81  64  57 CALM      30.02S
MCMINNVILLE    SUNNY     79  66  65 CALM      30.03S
COLUMBIA       SUNNY     82  66  57 VRB3      30.00S
SHELBYVILLE    SUNNY     82  66  57 CALM      30.02S
$$

TNZ017-018-042-046-047-021600-
NORTHEAST TENNESSEE

CITY           SKY/WX    TMP DP  RH WIND       PRES   REMARKS
TRI CITIES     MOSUNNY   78  62  57 CALM      30.06S
ELIZABETHTON   SUNNY     75  61  60 CALM      30.06S
$$

TNZ012-013-036-069-073-074-021600-
CENTRAL EAST TENNESSEE

CITY           SKY/WX    TMP DP  RH WIND       PRES   REMARKS
KNOXVILLE      MOSUNNY   80  65  59 NE5       30.01S
OAK RIDGE      SUNNY     80  64  58 VRB3      30.03S
GATLINBURG     SUNNY     79  66  65 CALM      30.01S
MORRISTOWN     SUNNY     79  64  61 VRB5      30.04S
$$

TNZ083-085-099-021600-
SOUTHEAST TENNESSEE

CITY           SKY/WX    TMP DP  RH WIND       PRES   REMARKS
CHATTANOOGA    MOSUNNY   81  64  56 N7        30.00S
$$

SKY/WX REPORTED AS FAIR MEANS FEW OR NO CLOUDS BELOW
12 THOUSAND FEET.



USA.gov is the U.S. government's official web portal to all federal, state and local government web resources and services.